GW2980 Weather Reports


time (UTC)temp
C
wind
direction
speed
KPH
gust
KPH
rain 1hr
cm
rain 24hr
cm
rain mn
cm
humidity
%
barometer
mb
20260504130635 17 0.0 0.0 0.00 0.00 0.00 55 948.0
20260504130335 17 0.0 0.0 0.00 0.00 0.00 55 948.0
20260504110636 19 0.0 0.0 0.00 0.00 0.00 46 948.0
20260504110336 19 0.0 0.0 0.00 0.00 0.00 46 948.0
20260504081835 15 0.0 0.0 0.00 0.00 0.00 65 949.0
20260504081236 15 0.0 0.0 0.00 0.00 0.00 65 949.0
20260504080936 15 0.0 0.0 0.00 0.00 0.00 65 949.0
20260504080635 15 0.0 0.0 0.00 0.00 0.00 65 949.0
20260504080336 15 0.0 0.0 0.00 0.00 0.00 65 949.0
20260504070336 15 0.0 0.0 0.00 0.00 0.00 69 948.0
20260504050336 13 0.0 0.0 0.00 0.00 0.00 74 948.0
20260504045736 13 0.0 0.0 0.00 0.00 0.00 74 948.0
20260504045436 13 0.0 0.0 0.00 0.00 0.00 74 948.0
20260504045136 14 0.0 0.0 0.00 0.00 0.00 72 947.9
20260504044836 14 0.0 0.0 0.00 0.00 0.00 72 947.9
20260504044536 14 0.0 0.0 0.00 0.00 0.00 72 947.9
20260504044236 14 0.0 0.0 0.00 0.00 0.00 72 947.9
20260504043935 14 0.0 0.0 0.00 0.00 0.00 72 947.9
20260504043335 14 0.0 0.0 0.00 0.00 0.00 72 947.9
20260504043036 14 0.0 0.0 0.00 0.00 0.00 72 947.9
20260504042735 13 0.0 0.0 0.00 0.00 0.00 73 947.0
20260504042136 13 0.0 0.0 0.00 0.00 0.00 73 947.0
20260504041836 13 0.0 0.0 0.00 0.00 0.00 73 947.0
20260504041535 13 0.0 0.0 0.00 0.00 0.00 73 947.0
20260504041235 13 0.0 0.0 0.00 0.00 0.00 73 947.0
20260504040936 13 0.0 0.0 0.00 0.00 0.00 73 947.0
20260504040636 13 0.0 0.0 0.00 0.00 0.00 73 947.0
20260504040335 13 0.0 0.0 0.00 0.00 0.00 73 947.0
20260504040035 13 0.0 0.0 0.00 0.00 0.00 73 947.0
20260504035736 13 0.0 0.0 0.00 0.00 0.00 73 948.1
20260504035436 13 0.0 0.0 0.00 0.00 0.00 73 948.1
20260504035136 13 0.0 0.0 0.00 0.00 0.00 73 948.1
20260504034836 13 0.0 0.0 0.00 0.00 0.00 73 948.1
20260504033935 13 0.0 0.0 0.00 0.00 0.00 73 948.1
20260504033636 13 0.0 0.0 0.00 0.00 0.00 73 948.1
20260504033335 14 0.0 0.0 0.00 0.00 0.00 72 948.0
20260504033036 14 0.0 0.0 0.00 0.00 0.00 72 948.0
20260504032735 14 0.0 0.0 0.00 0.00 0.00 72 948.0
20260504032436 14 0.0 0.0 0.00 0.00 0.00 72 948.0
20260504032136 14 0.0 0.0 0.00 0.00 0.00 72 948.0
20260504031835 14 0.0 0.0 0.00 0.00 0.00 72 948.0
20260504031536 14 0.0 0.0 0.00 0.00 0.00 72 948.0
20260504031236 13 0.0 0.0 0.00 0.00 0.00 73 948.0
20260504030936 13 0.0 0.0 0.00 0.00 0.00 73 948.0
20260504030636 13 0.0 0.0 0.00 0.00 0.00 73 948.0
20260504030036 13 0.0 0.0 0.00 0.00 0.00 73 948.0
20260504025436 13 0.0 0.0 0.00 0.00 0.00 73 948.0
20260504024835 13 0.0 0.0 0.00 0.00 0.00 74 948.4
20260504024536 13 0.0 0.0 0.00 0.00 0.00 74 948.4
20260504024235 13 0.0 0.0 0.00 0.00 0.00 74 948.4
20260504023635 13 0.0 0.0 0.00 0.00 0.00 74 948.4
20260504023336 13 0.0 0.0 0.00 0.00 0.00 73 948.0
20260504023036 13 0.0 0.0 0.00 0.00 0.00 73 948.0
20260504022436 13 0.0 0.0 0.00 0.00 0.00 73 948.0
20260504022136 13 0.0 0.0 0.00 0.00 0.00 73 948.0
20260504021536 13 0.0 0.0 0.00 0.00 0.00 73 948.0
20260504021236 13 0.0 0.0 0.00 0.00 0.00 73 948.0
20260504020636 13 0.0 0.0 0.00 0.00 0.00 73 948.0
20260504020336 13 0.0 0.0 0.00 0.00 0.00 73 948.0
20260504020036 13 0.0 0.0 0.00 0.00 0.00 73 948.0
20260504015735 13 0.0 0.0 0.00 0.00 0.00 73 948.0
20260504015435 13 0.0 0.0 0.00 0.00 0.00 73 948.0
20260504015136 13 0.0 0.0 0.00 0.00 0.00 73 948.0
20260504014836 13 0.0 0.0 0.00 0.00 0.00 73 948.0
20260504014535 13 0.0 0.0 0.00 0.00 0.00 73 948.6
20260504014235 13 0.0 0.0 0.00 0.00 0.00 74 948.0
20260504013936 13 0.0 0.0 0.00 0.00 0.00 74 948.0
20260504013636 13 0.0 0.0 0.00 0.00 0.00 74 948.0
20260504013036 13 0.0 0.0 0.00 0.00 0.00 74 948.0
20260504012735 13 0.0 0.0 0.00 0.00 0.00 74 948.0
20260504012435 13 0.0 0.0 0.00 0.00 0.00 74 948.0
20260504012136 13 0.0 0.0 0.00 0.00 0.00 74 948.0
20260504011836 13 0.0 0.0 0.00 0.00 0.00 74 948.0
20260504011536 13 0.0 0.0 0.00 0.00 0.00 74 948.0
20260504011236 13 0.0 0.0 0.00 0.00 0.00 74 948.0
20260504010636 13 0.0 0.0 0.00 0.00 0.00 74 948.0
20260504010036 13 0.0 0.0 0.00 0.00 0.00 73 948.0
20260504005436 13 0.0 0.0 0.00 0.00 0.00 73 948.0
20260504005135 13 0.0 0.0 0.00 0.00 0.00 72 948.6
20260504004836 14 0.0 0.0 0.00 0.00 0.00 71 948.0
20260504004236 14 0.0 0.0 0.00 0.00 0.00 71 948.0
20260504003935 15 0.0 0.0 0.00 0.00 0.00 69 948.0
20260504003636 15 0.0 0.0 0.00 0.00 0.00 69 948.0
20260504003035 15 0.0 0.0 0.00 0.00 0.00 69 948.0
20260504002735 15 0.0 0.0 0.00 0.00 0.00 69 948.0
20260504002436 15 0.0 0.0 0.00 0.00 0.00 69 948.0
20260504002136 15 0.0 0.0 0.00 0.00 0.00 69 948.0
20260504001836 15 0.0 0.0 0.00 0.00 0.00 69 948.0
20260504001235 15 0.0 0.0 0.00 0.00 0.00 69 948.0
20260504000936 14 0.0 0.0 0.00 0.00 0.00 69 948.7
20260504000635 14 0.0 0.0 0.00 0.00 0.00 69 948.7
20260504000336 14 0.0 0.0 0.00 0.00 0.00 69 948.7
20260504000036 14 0.0 0.0 0.00 0.00 0.00 69 948.7
20260503235436 14 0.0 0.0 0.00 0.00 0.00 69 948.7
20260503235136 14 0.0 0.0 0.00 0.00 0.00 67 948.0
20260503234236 14 0.0 0.0 0.00 0.00 0.00 67 948.0
20260503233636 14 0.0 0.0 0.00 0.00 0.00 67 948.0
20260503233336 14 0.0 0.0 0.00 0.00 0.00 67 948.0
20260503233036 14 0.0 0.0 0.00 0.00 0.00 67 948.0
20260503232136 15 0.0 0.0 0.00 0.00 0.00 65 948.7
20260503231836 15 0.0 0.0 0.00 0.00 0.00 65 948.7
20260503231536 15 0.0 0.0 0.00 0.00 0.00 65 948.7
20260503231235 15 0.0 0.0 0.00 0.00 0.00 65 948.7
20260503230936 15 0.0 0.0 0.00 0.00 0.00 65 948.7
20260503230635 15 0.0 0.0 0.00 0.00 0.00 65 948.7
20260503230336 15 0.0 0.0 0.00 0.00 0.00 65 948.7
20260503225735 15 0.0 0.0 0.00 0.00 0.00 67 948.0
20260503225436 15 0.0 0.0 0.00 0.00 0.00 63 948.6
20260503225136 15 0.0 0.0 0.00 0.00 0.00 63 948.6
20260503224836 15 0.0 0.0 0.00 0.00 0.00 63 948.6
20260503224536 15 0.0 0.0 0.00 0.00 0.00 63 948.6
20260503223936 15 0.0 0.0 0.00 0.00 0.00 63 948.6
20260503223036 15 0.0 0.0 0.00 0.00 0.00 63 948.6
20260503222735 15 0.0 0.0 0.00 0.00 0.00 63 948.6
20260503222436 15 0.0 0.0 0.00 0.00 0.00 63 948.6
20260503222136 15 0.0 0.0 0.00 0.00 0.00 63 948.6
20260503221836 15 0.0 0.0 0.00 0.00 0.00 63 948.6
20260503221536 15 0.0 0.0 0.00 0.00 0.00 63 948.6
20260503220935 15 0.0 0.0 0.00 0.00 0.00 63 948.6
20260503220635 15 0.0 0.0 0.00 0.00 0.00 61 948.8
20260503220336 15 0.0 0.0 0.00 0.00 0.00 61 948.8
20260503220036 15 0.0 0.0 0.00 0.00 0.00 61 948.8
20260503215735 15 0.0 0.0 0.00 0.00 0.00 61 948.8
20260503215436 15 0.0 0.0 0.00 0.00 0.00 61 948.8
20260503215136 15 0.0 0.0 0.00 0.00 0.00 61 948.8
20260503214835 15 0.0 0.0 0.00 0.00 0.00 61 948.8
20260503214536 15 0.0 0.0 0.00 0.00 0.00 61 948.8
20260503214235 15 0.0 0.0 0.00 0.00 0.00 61 948.8
20260503213936 15 0.0 0.0 0.00 0.00 0.00 61 948.8
20260503213636 15 0.0 0.0 0.00 0.00 0.00 61 948.8
20260503213336 15 0.0 0.0 0.00 0.00 0.00 61 948.8
20260503213036 15 0.0 0.0 0.00 0.00 0.00 61 948.8
20260503212736 15 0.0 0.0 0.00 0.00 0.00 61 948.8
20260503212435 15 0.0 0.0 0.00 0.00 0.00 61 948.8
20260503212135 15 0.0 0.0 0.00 0.00 0.00 61 948.8
20260503211536 15 0.0 0.0 0.00 0.00 0.00 61 948.8
20260503210935 15 0.0 0.0 0.00 0.00 0.00 61 948.0
20260503210336 15 0.0 0.0 0.00 0.00 0.00 59 948.0
20260503210036 15 0.0 0.0 0.00 0.00 0.00 59 948.0
20260503205736 15 0.0 0.0 0.00 0.00 0.00 59 948.0
20260503205436 15 0.0 0.0 0.00 0.00 0.00 59 948.0
20260503205135 15 0.0 0.0 0.00 0.00 0.00 59 948.0
20260503204836 16 0.0 0.0 0.00 0.00 0.00 60 948.0
20260503204535 16 0.0 0.0 0.00 0.00 0.00 60 948.0
20260503204236 16 0.0 0.0 0.00 0.00 0.00 60 948.0
20260503203936 16 0.0 0.0 0.00 0.00 0.00 60 948.0
20260503203636 16 0.0 0.0 0.00 0.00 0.00 60 948.0
20260503203335 16 0.0 0.0 0.00 0.00 0.00 60 948.0
20260503203036 16 0.0 0.0 0.00 0.00 0.00 60 948.0
20260503202736 16 0.0 0.0 0.00 0.00 0.00 60 948.0
20260503202436 16 0.0 0.0 0.00 0.00 0.00 60 948.0
20260503202135 16 0.0 0.0 0.00 0.00 0.00 60 948.0
20260503201835 16 0.0 0.0 0.00 0.00 0.00 60 947.0
20260503201536 16 0.0 0.0 0.00 0.00 0.00 60 947.0
20260503201236 16 0.0 0.0 0.00 0.00 0.00 60 947.0
20260503200936 16 0.0 0.0 0.00 0.00 0.00 60 947.0
20260503200636 16 0.0 0.0 0.00 0.00 0.00 62 947.0
20260503200036 16 0.0 0.0 0.00 0.00 0.00 62 947.0
20260503195436 15 0.0 0.0 0.00 0.00 0.00 58 947.0
20260503195136 15 0.0 0.0 0.00 0.00 0.00 58 947.0
20260503194835 15 0.0 0.0 0.00 0.00 0.00 58 947.0
20260503194536 15 0.0 0.0 0.00 0.00 0.00 58 947.0
20260503194236 15 0.0 0.0 0.00 0.00 0.00 58 947.0
20260503193936 15 0.0 0.0 0.00 0.00 0.00 58 947.0
20260503193636 15 0.0 0.0 0.00 0.00 0.00 58 947.0
20260503193336 15 0.0 0.0 0.00 0.00 0.00 58 947.0
20260503193036 16 0.0 0.0 0.00 0.00 0.00 57 947.0
20260503192736 16 0.0 0.0 0.00 0.00 0.00 57 947.0
20260503192436 16 0.0 0.0 0.00 0.00 0.00 57 947.0
20260503192136 16 0.0 0.0 0.00 0.00 0.00 57 947.0
20260503191835 16 0.0 0.0 0.00 0.00 0.00 57 947.0
20260503191236 16 0.0 0.0 0.00 0.00 0.00 57 947.0
20260503190935 16 0.0 0.0 0.00 0.00 0.00 57 947.0
20260503190636 16 0.0 0.0 0.00 0.00 0.00 57 947.0
20260503190336 16 0.0 0.0 0.00 0.00 0.00 56 946.0
20260503190036 16 0.0 0.0 0.00 0.00 0.00 56 946.9
20260503185735 17 0.0 0.0 0.00 0.00 0.00 55 946.0
20260503185436 17 0.0 0.0 0.00 0.00 0.00 51 946.0
20260503185135 17 0.0 0.0 0.00 0.00 0.00 51 946.0
20260503184836 17 0.0 0.0 0.00 0.00 0.00 51 946.0
20260503184536 17 0.0 0.0 0.00 0.00 0.00 50 946.0
20260503184235 17 0.0 0.0 0.00 0.00 0.00 50 946.0
20260503183336 18 0.0 0.0 0.00 0.00 0.00 48 946.0
20260503183036 18 0.0 0.0 0.00 0.00 0.00 48 946.0
20260503182736 18 0.0 0.0 0.00 0.00 0.00 48 946.0
20260503182436 18 0.0 0.0 0.00 0.00 0.00 48 946.0
20260503182136 18 0.0 0.0 0.00 0.00 0.00 46 946.0
20260503181536 18 0.0 0.0 0.00 0.00 0.00 46 946.0
20260503181236 18 0.0 0.0 0.00 0.00 0.00 46 946.0
20260503180935 18 0.0 0.0 0.00 0.00 0.00 46 946.0
20260503180636 18 0.0 0.0 0.00 0.00 0.00 46 946.0
20260503180036 18 0.0 0.0 0.00 0.00 0.00 46 946.0
20260503175736 18 0.0 0.0 0.00 0.00 0.00 46 946.0
20260503175436 18 0.0 0.0 0.00 0.00 0.00 46 946.0
20260503175136 19 0.0 0.0 0.00 0.00 0.00 48 946.0
20260503174835 19 0.0 0.0 0.00 0.00 0.00 48 946.0
20260503174536 19 0.0 0.0 0.00 0.00 0.00 48 946.0
20260503173936 19 0.0 0.0 0.00 0.00 0.00 48 946.0
20260503173636 19 0.0 0.0 0.00 0.00 0.00 48 946.0
20260503173336 19 0.0 0.0 0.00 0.00 0.00 48 946.0
20260503173036 19 0.0 0.0 0.00 0.00 0.00 48 946.0
20260503172736 19 0.0 0.0 0.00 0.00 0.00 48 946.0
20260503172435 19 0.0 0.0 0.00 0.00 0.00 48 946.0
20260503172135 19 0.0 0.0 0.00 0.00 0.00 48 946.0
20260503171836 19 0.0 0.0 0.00 0.00 0.00 48 946.0
20260503171535 19 0.0 0.0 0.00 0.00 0.00 48 946.0
20260503171236 18 0.0 0.0 0.00 0.00 0.00 49 946.0
20260503170936 18 0.0 0.0 0.00 0.00 0.00 49 946.0
20260503170635 18 0.0 0.0 0.00 0.00 0.00 49 946.0
20260503170335 18 0.0 0.0 0.00 0.00 0.00 50 945.0
20260503150936 19 0.0 0.0 0.00 0.00 0.00 53 946.0